Location: ?????????
(41.1143°N, 22.7905°E)
Time: 00:57:59
(UTC+00:00)

Cosmos 1655 Rocket - Pass Details

Date: 13 December 2025
Orbit: 969 x 1006 km, 83.0° (Epoch: 17 January)

Event Time Altitude Azimuth Distance (km) Brightness Sun altitude
Rises 16:19:32 0° 352° (N) 3,679 6.9 -14.3°
Reaches altitude 10° 16:22:03 10° 352° (N) 2,725 6.2 -14.8°
Maximum altitude 16:28:18 89° 269° (W) 976 4.0 -15.9°
Drops below altitude 10° 16:34:30 10° 175° (S) 2,703 6.5 -17.0°
Sets 16:37:00 0° 175° (S) 3,648 7.1 -17.5°
